Tracking 17856 objects as of 28-September-2016
HD Live streaming from Space Station
objects crossing your sky now

COSMOS 1015

Track COSMOS 1015 now!
10-day predictions
COSMOS 1015 is classified as:


NORAD ID: 10932
Int'l Code: 1978-056C
Perigee: 1,502.0 km
Apogee: 1,502.0 km
Inclination: 74.0 °
Period: 115.9 minutes
Semi major axis: 7873 km
RCS: 0.7013 m2 (medium)
Launch date: June 7, 1978
Source: Commonwealth of Independent States (former USSR) (CIS)
Launch site: PLESETSK MISSILE AND SPACE COMPLEX (PKMTR)
Your satellite tracking list
Your tracking list is empty





NASA's NSSDC Master Catalog

Two Line Element Set (TLE):
1 10932U 78056C   16270.44906133 -.00000000  00000-0  11222-3 0  9999
2 10932  74.0241 252.0353 0027468 357.9321 171.5635 12.42769235737974
Source of the keplerian elements: AFSPC

N2YO: 495